DW4219 Weather Reports


Display with metric or nautical units.
time (UTC)temp
F
wind
direction
speed
MPH
gust
MPH
rain 1hr
in
rain 24hr
in
rain mn
in
humidity
%
barometer
mb
20260905083040 60 354 0.0 1.0 0.00 0.00 0.00 30 1009.9
20260905081538 59 131 0.0 0.0 0.00 0.00 0.00 31 1009.8
20260905080048 62 131 0.0 1.0 0.00 0.00 0.00 29 1009.8
20260905074540 60 213 0.0 0.0 0.00 0.00 0.00 31 1009.8
20260905073032 60 199 0.0 0.0 0.00 0.00 0.00 32 1009.7
20260905071530 58 128 0.0 1.0 0.00 0.00 0.00 34 1009.4
20260905070028 57 226 0.0 1.0 0.00 0.00 0.00 37 1009.3
20260905064525 58 186 0.0 0.0 0.00 0.00 0.00 32 1009.1
20260905063023 58 169 0.0 0.0 0.00 0.00 0.00 31 1009.1
20260905061521 58 169 0.0 0.0 0.00 0.00 0.00 31 1008.9
20260905060018 59 133 0.0 0.0 0.00 0.00 0.00 31 1008.7
20260905054518 59 200 0.0 0.0 0.00 0.00 0.00 31 1008.7
20260905053015 59 200 0.0 0.0 0.00 0.00 0.00 30 1008.7
20260905051514 61 200 0.0 0.0 0.00 0.00 0.00 30 1008.6
20260905050007 64 133 0.0 0.0 0.00 0.00 0.00 28 1008.6
20260905044508 66 133 0.0 1.0 0.00 0.00 0.00 24 1008.5
20260905043015 68 157 0.0 1.0 0.00 0.00 0.00 23 1008.4
20260905041507 70 179 2.0 5.0 0.00 0.00 0.00 21 1008.3
20260905040006 71 198 4.0 8.0 0.00 0.00 0.00 21 1008.2
20260905034506 72 225 4.0 14.0 0.00 0.00 0.00 20 1008.1
20260905033005 73 219 9.0 15.0 0.00 0.00 0.00 20 1008.0
20260905031507 73 230 6.0 14.0 0.00 0.00 0.00 21 1007.7
20260905030004 73 207 6.0 17.0 0.00 0.00 0.00 21 1007.4
20260905024503 73 186 2.0 11.0 0.00 0.00 0.00 23 1007.1
20260905023004 73 232 5.0 11.0 0.00 0.00 0.00 24 1007.0
20260905021503 74 219 6.0 15.0 0.00 0.00 0.00 24 1006.8
20260905014600 76 217 8.0 19.0 0.00 0.00 0.00 25 1006.5
20260905013058 77 231 8.0 18.0 0.00 0.00 0.00 25 1006.5
20260905011602 78 236 7.0 19.0 0.00 0.00 0.00 26 1006.4
20260905010105 79 236 11.0 24.0 0.00 0.00 0.00 26 1006.2
20260905004557 80 212 9.0 18.0 0.00 0.00 0.00 26 1006.2
20260905003056 80 281 12.0 23.0 0.00 0.00 0.00 27 1006.2
20260905001604 80 236 8.0 20.0 0.00 0.00 0.00 27 1006.1
20260905000111 81 250 13.0 21.0 0.00 0.00 0.00 26 1006.1
20260904234554 81 200 14.0 22.0 0.00 0.00 0.00 27 1006.1
20260904233115 80 226 11.0 24.0 0.00 0.00 0.00 29 1006.1
20260904231603 81 214 12.0 21.0 0.00 0.00 0.00 30 1006.1
20260904230051 81 157 10.0 23.0 0.00 0.00 0.00 28 1006.3
20260904224556 81 200 16.0 28.0 0.00 0.00 0.00 26 1006.4
20260904223107 81 222 14.0 28.0 0.00 0.00 0.00 26 1006.4
20260904221548 80 182 15.0 30.0 0.00 0.00 0.00 26 1006.4
20260904220045 81 212 16.0 25.0 0.00 0.00 0.00 25 1006.7
20260904214544 80 190 16.0 28.0 0.00 0.00 0.00 25 1006.8
20260904213043 80 193 16.0 29.0 0.00 0.00 0.00 24 1007.0
20260904211541 79 212 13.0 28.0 0.00 0.00 0.00 25 1007.0
20260904210049 79 207 19.0 33.0 0.00 0.00 0.00 22 1007.1
20260904204538 80 213 14.0 25.0 0.00 0.00 0.00 22 1007.1
20260904203038 79 188 19.0 29.0 0.00 0.00 0.00 21 1007.2
20260904201534 79 195 12.0 31.0 0.00 0.00 0.00 22 1007.3
20260904200033 79 193 12.0 29.0 0.00 0.00 0.00 22 1007.3
20260904194531 79 237 14.0 28.0 0.00 0.00 0.00 22 1007.7
20260904193028 78 212 16.0 27.0 0.00 0.00 0.00 24 1007.7
20260904191527 78 165 14.0 26.0 0.00 0.00 0.00 24 1008.0
20260904190032 77 214 10.0 25.0 0.00 0.00 0.00 25 1008.2
20260904184523 77 228 15.0 29.0 0.00 0.00 0.00 26 1008.4
20260904183025 76 210 13.0 25.0 0.00 0.00 0.00 26 1008.6
20260904181529 76 162 18.0 26.0 0.00 0.00 0.00 28 1008.7
20260904180019 75 163 15.0 30.0 0.00 0.00 0.00 29 1008.7
20260904174516 75 196 12.0 26.0 0.00 0.00 0.00 30 1008.7
20260904173033 74 194 17.0 29.0 0.00 0.00 0.00 29 1008.7
20260904171513 74 213 18.0 33.0 0.00 0.00 0.00 29 1008.8
20260904170011 73 143 13.0 27.0 0.00 0.00 0.00 28 1008.7
20260904164510 73 164 14.0 25.0 0.00 0.00 0.00 27 1008.6
20260904163007 73 168 13.0 24.0 0.00 0.00 0.00 26 1008.5
20260904161511 72 191 18.0 29.0 0.00 0.00 0.00 26 1008.3
20260904160003 72 179 17.0 27.0 0.00 0.00 0.00 26 1008.4
20260904154501 71 162 17.0 32.0 0.00 0.00 0.00 26 1008.2
20260904153101 71 191 16.0 30.0 0.00 0.00 0.00 25 1008.2
20260904151601 71 202 12.0 22.0 0.00 0.00 0.00 25 1008.2
20260904150056 70 141 13.0 21.0 0.00 0.00 0.00 24 1008.1
20260904144608 70 172 10.0 20.0 0.00 0.00 0.00 24 1008.2
20260904143058 69 205 15.0 23.0 0.00 0.00 0.00 24 1008.1
20260904141551 69 224 12.0 20.0 0.00 0.00 0.00 25 1008.0
20260904140046 68 176 14.0 20.0 0.00 0.00 0.00 25 1007.8
20260904134544 67 205 10.0 16.0 0.00 0.00 0.00 25 1007.7
20260904133051 65 179 8.0 14.0 0.00 0.00 0.00 26 1007.6
20260904131545 65 209 7.0 13.0 0.00 0.00 0.00 26 1007.6
20260904130041 64 194 7.0 16.0 0.00 0.00 0.00 27 1007.8
20260904124539 64 207 5.0 12.0 0.00 0.00 0.00 28 1007.6
20260904123039 63 205 1.0 8.0 0.00 0.00 0.00 31 1007.6
20260904121537 63 195 0.0 4.0 0.00 0.00 0.00 32 1007.7
20260904120034 64 182 2.0 8.0 0.00 0.00 0.00 32 1007.7
20260904114531 64 200 2.0 14.0 0.00 0.00 0.00 31 1007.6
20260904113030 65 188 5.0 12.0 0.00 0.00 0.00 31 1007.6
20260904111528 65 181 5.0 12.0 0.00 0.00 0.00 31 1007.5
20260904110026 66 176 7.0 18.0 0.00 0.00 0.00 29 1007.3
20260904104523 66 179 7.0 16.0 0.00 0.00 0.00 29 1007.2
20260904103024 66 160 8.0 14.0 0.00 0.00 0.00 28 1007.2
20260904101522 66 181 6.0 12.0 0.00 0.00 0.00 28 1007.0
20260904100019 66 181 6.0 17.0 0.00 0.00 0.00 27 1006.9
20260904094520 67 194 9.0 16.0 0.00 0.00 0.00 26 1006.9
20260904093015 67 202 7.0 18.0 0.00 0.00 0.00 25 1006.8
20260904091529 66 209 6.0 13.0 0.00 0.00 0.00 25 1006.9
20260904090015 66 225 2.0 10.0 0.00 0.00 0.00 24 1006.9
20260904084510 66 196 3.0 9.0 0.00 0.00 0.00 22 1006.7